Theta_e
320 320 320 320 319 319 319 320 321 320 319 318 318 319 320 320 319 319 319 318 319 320 321 320 319 318 317 316 317 326 325 326 327 328 329 330 336 337 335 335 335 336 336 343 345 342 342
322 322 322 322 322 322 322 322 322 322 322 322 321 319 319 320 320 319 319 318 319 320 321 320 319 318 317 317 317 318 324 323 324 327 328 331 335 333 334 334 333 337 336 344 343 343 342
319 320 320 320 321 321 321 321 321 322 322 322 322 322 320 320 320 320 319 318 318 319 320 320 318 317 316 317 317 320 321 324 325 326 327 328 329 328 330 330 334 335 338 344 345 343 344
319 319 319 319 319 320 320 319 320 319 320 321 322 322 322 320 320 321 319 319 318 320 320 319 317 316 316 317 318 321 324 324 325 325 325 328 328 328 331 332 332 335 333 336 344 343 343
320 320 320 320 320 320 320 320 320 319 320 320 321 321 322 322 321 321 319 319 321 323 321 319 316 317 318 321 319 324 324 324 322 323 324 327 327 330 332 330 331 331 336 337 342 343 344
319 319 318 318 318 319 319 320 320 318 319 320 320 320 321 323 322 321 319 322 327 325 323 322 320 318 318 322 323 322 322 322 322 322 325 327 328 325 325 328 334 335 334 335 338 343 343
317 317 316 315 318 318 318 319 320 319 319 319 319 319 321 323 322 321 320 326 325 324 324 326 325 323 323 323 323 323 322 322 321 320 318 322 323 326 329 329 332 333 334 335 336 337 340
315 315 315 315 315 317 319 319 320 319 319 318 317 318 320 322 323 321 323 325 324 324 323 324 324 324 324 324 324 323 322 321 319 316 319 318 321 323 326 330 332 331 332 332 336 338 336
316 314 314 313 314 314 314 318 320 320 319 319 318 317 317 321 322 320 325 324 324 325 323 324 324 325 324 323 324 323 322 320 317 316 317 318 321 324 327 328 330 329 331 334 338 338 335
317 315 314 313 312 313 314 314 316 319 319 319 319 317 316 319 321 321 325 323 325 326 318 321 321 323 323 324 324 323 322 319 318 316 315 317 319 322 324 327 328 330 329 332 339 336 337
317 316 315 314 312 311 312 313 314 314 316 319 319 318 316 316 319 321 323 324 326 326 322 325 322 324 323 323 321 321 323 321 317 318 315 317 323 323 324 324 328 328 330 332 338 334 331
317 316 314 312 311 310 310 311 312 313 314 315 317 318 317 316 319 322 323 324 326 320 321 326 322 322 322 322 323 321 320 321 320 318 317 317 321 322 322 324 325 327 333 331 329 330 333
316 313 311 310 309 309 309 310 311 313 314 314 315 316 316 315 319 323 323 325 319 325 324 325 323 321 320 321 322 321 321 318 316 316 316 316 317 319 322 322 323 332 329 333 335 334 334
313 310 309 309 309 309 309 309 310 311 313 314 316 315 315 314 316 319 323 321 327 325 327 324 325 322 321 319 320 320 318 318 315 315 313 316 318 319 322 321 322 325 327 332 337 336 333
312 309 308 308 308 309 309 309 309 310 312 315 315 315 317 317 316 321 324 323 320 323 325 324 322 321 322 321 320 320 317 315 315 313 317 316 318 321 324 325 324 325 332 329 330 328 330
311 309 308 308 308 308 309 309 309 309 311 315 315 323 328 319 322 322 319 319 323 322 323 323 324 323 325 324 324 318 317 317 318 315 316 317 318 317 321 323 323 324 325 332 326 335 336
311 309 308 308 308 308 308 309 309 309 311 315 318 325 326 326 322 324 317 319 322 324 323 323 324 324 322 324 323 318 317 318 318 318 315 314 315 318 322 322 322 322 327 326 326 327 332
311 309 308 308 309 309 308 309 309 309 313 317 320 323 325 322 324 319 321 321 323 322 325 323 321 321 321 323 322 323 322 320 330 316 316 314 312 315 318 318 321 323 324 327 328 331 327
311 309 308 308 309 309 308 308 310 310 314 317 320 325 325 326 324 322 322 324 325 325 324 324 324 324 323 323 324 323 327 328 334 318 317 315 314 316 316 316 323 327 327 326 323 326 331
312 309 308 308 309 310 309 308 310 311 313 317 322 324 328 326 325 325 326 327 327 327 325 326 324 323 322 322 321 326 335 335 334 332 323 318 311 316 319 318 326 329 330 327 323 326 328
312 309 308 308 309 310 310 309 310 312 313 317 323 323 325 325 325 325 326 326 329 330 327 330 327 331 328 322 328 333 334 331 330 331 328 319 316 316 315 318 326 331 329 329 330 328 332
313 309 308 309 310 310 310 309 310 312 314 321 323 325 326 325 325 324 324 328 329 332 330 332 333 333 331 321 321 323 333 330 332 330 330 324 326 320 320 325 328 331 330 330 330 330 330
314 309 308 308 309 310 311 310 309 311 313 321 323 324 324 324 323 324 325 327 330 330 331 331 332 331 332 331 331 330 330 330 331 333 331 329 330 329 333 321 324 322 322 325 330 330 330
316 310 308 308 308 310 311 311 309 311 312 316 320 322 323 323 323 326 326 326 328 329 331 331 332 331 334 333 332 333 332 333 331 328 327 329 328 323 332 326 330 323 323 329 330 332 336
318 310 308 307 308 311 310 311 311 310 312 315 317 320 322 322 322 323 324 324 327 328 329 332 332 331 337 331 329 330 330 331 332 331 328 325 323 324 330 327 328 331 331 332 331 334 342
320 311 308 307 307 310 311 311 311 311 312 314 317 319 319 321 317 322 322 323 325 326 325 330 330 333 336 325 332 336 335 337 337 333 327 328 324 328 325 330 330 327 335 335 333 334 343
321 313 309 307 307 309 311 310 311 311 312 314 317 318 318 319 319 320 321 322 324 324 323 326 328 331 335 329 335 337 336 332 334 335 335 331 330 332 329 329 326 335 335 336 333 334 344
322 313 308 307 306 310 310 310 311 311 312 314 315 317 318 318 318 318 319 320 320 322 324 326 328 329 332 333 332 331 333 333 334 333 334 332 336 338 336 329 330 333 337 337 333 345 343
322 312 308 307 306 311 310 310 311 311 313 313 315 316 316 318 319 319 318 319 319 320 321 324 325 327 333 329 329 329 331 331 327 331 328 333 333 334 335 337 333 335 336 337 340 344 339
Wind_Speed
12 12 13 13 13 13 13 14 15 15 16 16 16 16 17 17 17 17 16 16 15 16 16 13 11 9 9 7 15 5 5 5 0 6 7 8 7 4 4 8 18 3 5 0 12 18 13
12 12 13 14 14 15 15 15 15 16 17 17 17 17 17 18 18 18 17 16 16 16 16 12 10 9 8 5 6 14 12 6 4 4 5 5 5 12 10 6 1 13 10 11 16 14 15
13 14 14 14 15 16 16 17 17 17 18 18 19 18 18 18 19 19 18 16 16 16 14 12 11 9 13 19 5 11 13 6 5 3 7 7 8 9 13 7 16 12 5 7 3 9 4
13 14 15 15 16 16 17 17 18 18 18 19 19 19 19 18 18 20 18 16 16 14 12 10 10 10 10 5 8 12 10 7 4 4 7 7 8 9 4 9 9 6 5 2 6 9 9
15 15 16 17 17 17 17 17 18 18 18 19 19 20 19 18 18 19 17 16 13 11 9 8 8 7 10 4 7 13 12 11 5 6 6 6 7 2 3 3 5 6 3 5 1 13 3
14 15 16 18 18 18 18 18 18 18 18 18 19 20 19 17 18 19 16 12 8 4 2 6 8 7 8 2 4 7 13 11 5 6 4 2 2 4 4 5 2 4 6 7 2 9 7
16 16 16 17 17 17 17 17 18 18 18 18 19 19 18 16 16 16 11 4 7 3 9 12 18 21 24 16 11 6 9 14 11 3 2 3 4 4 8 5 5 3 3 5 11 8 10
17 18 18 18 18 17 17 17 17 18 18 18 19 19 18 15 15 11 5 8 8 10 14 16 20 25 27 24 9 5 12 8 5 5 2 5 4 8 2 1 3 4 4 9 11 2 3
18 18 19 19 19 18 18 17 17 18 18 18 19 19 18 14 12 4 4 3 13 12 5 11 12 15 18 8 9 10 9 12 4 4 3 6 6 3 3 2 4 3 4 5 8 6 1
18 20 21 20 20 20 19 18 18 19 19 18 18 18 18 15 2 6 2 7 12 8 4 6 4 4 11 6 5 17 12 13 1 8 7 4 7 3 1 4 6 6 5 9 11 4 1
19 20 20 22 20 20 20 20 19 19 19 19 18 18 17 15 13 5 5 7 7 2 3 0 2 2 14 11 0 2 18 11 8 6 7 7 2 4 5 9 5 11 4 10 7 3 5
22 22 21 20 20 21 20 20 20 20 19 19 18 17 18 14 11 2 4 4 3 5 4 4 4 4 5 3 1 7 5 6 4 4 3 7 2 5 7 4 6 6 3 5 4 4 2
23 23 22 21 19 19 21 20 20 20 20 20 19 16 19 17 5 4 5 0 5 3 6 6 4 2 2 4 2 4 4 3 5 3 5 5 7 4 4 4 3 4 5 3 3 3 6
23 23 22 22 20 18 17 19 20 20 20 21 19 17 16 15 9 6 1 4 2 2 5 4 4 4 5 4 4 3 6 5 4 4 3 5 6 7 4 8 8 7 9 6 6 5 5
23 22 21 20 20 20 19 18 17 17 19 22 20 15 13 5 10 11 4 3 6 5 4 8 8 5 3 1 3 3 5 5 9 9 8 5 5 1 3 4 7 3 3 5 7 3 3
21 22 21 19 18 19 18 18 17 17 17 19 20 14 6 9 12 13 4 4 4 4 5 3 3 3 3 4 2 4 6 5 6 11 7 4 3 5 2 4 1 5 5 3 3 4 3
21 21 20 20 18 16 16 16 17 16 15 15 13 5 3 13 18 6 3 6 5 8 6 4 1 3 6 4 3 3 4 6 6 1 8 6 4 5 3 2 5 2 1 4 5 5 6
19 20 20 20 19 17 15 14 15 16 13 11 5 2 13 19 4 2 3 5 4 5 7 7 4 8 6 5 4 3 3 5 15 10 10 8 5 5 11 5 1 2 6 7 5 5 2
20 19 19 19 19 16 14 12 13 13 14 14 6 2 12 12 1 1 4 4 5 4 4 3 4 4 4 2 3 2 1 6 15 3 9 9 2 2 10 7 4 3 4 4 4 4 5
20 18 17 18 18 17 14 11 10 11 10 11 4 2 2 15 4 3 3 6 4 7 7 6 7 5 2 4 3 2 2 3 8 8 6 6 4 8 10 8 4 4 4 4 7 4 4
18 18 18 17 16 16 13 10 8 9 6 6 4 2 3 2 2 3 2 3 6 5 2 9 6 5 2 4 2 3 1 4 4 8 4 4 2 1 5 6 6 6 5 4 3 5 6
17 17 17 17 17 15 12 9 7 7 4 2 3 4 5 4 7 4 2 1 3 6 2 5 4 14 4 4 5 6 4 3 2 6 3 4 1 2 3 5 5 3 5 6 6 5 5
17 17 16 15 15 13 12 10 6 5 3 2 1 2 2 3 4 1 1 4 4 8 3 9 6 5 6 4 16 12 2 3 3 1 1 3 3 3 4 5 1 3 7 5 5 3 5
17 16 16 15 15 11 11 10 7 6 4 3 3 1 2 3 1 1 5 8 7 6 4 10 9 5 10 18 6 3 2 4 8 5 1 3 4 2 3 4 1 9 4 5 6 4 2
17 16 15 14 14 11 9 8 8 7 5 4 5 2 1 3 4 7 6 4 13 9 3 4 7 12 21 7 4 5 5 4 5 4 6 3 2 3 3 3 6 3 5 3 6 0 4
18 16 15 14 13 11 9 7 8 7 7 4 7 5 3 3 4 1 4 7 3 3 5 4 11 10 12 3 3 3 3 2 5 9 5 4 4 2 3 3 5 5 5 19 6 2 4
19 17 15 14 13 11 9 6 9 7 8 6 10 7 6 5 8 6 3 3 5 4 3 5 11 7 7 3 2 2 3 1 2 2 4 5 3 3 3 4 6 1 12 12 5 7 2
20 18 16 13 13 10 8 6 8 6 8 6 8 11 10 8 18 19 13 13 13 5 1 7 5 3 5 4 3 1 1 3 1 3 3 3 1 3 0 3 4 8 11 6 3 17 29
20 18 16 13 12 10 7 6 8 7 10 7 8 12 13 12 13 13 18 24 23 20 13 5 4 4 2 3 0 3 2 1 1 3 1 3 5 3 6 4 3 5 7 18 7 15 20
Wind_Direction
344 343 342 342 342 342 340 340 339 338 337 335 336 335 334 332 328 325 323 322 320 321 320 316 309 303 299 265 245 185 136 138 112 278 283 302 342 15 2 299 331 139 357 127 145 149 151
334 333 333 332 332 332 331 330 330 329 330 331 329 328 329 328 325 322 320 318 314 315 314 310 302 294 282 263 260 231 231 243 227 298 282 308 333 330 291 292 323 307 311 128 144 157 145
327 327 327 327 327 328 327 325 323 322 323 325 325 323 322 324 324 319 317 316 311 310 308 301 299 291 275 252 263 216 235 212 211 235 297 310 318 317 312 317 331 304 97 76 195 163 106
324 322 322 322 322 322 323 323 323 321 319 319 321 321 318 319 321 318 316 316 309 302 301 296 294 293 262 272 237 216 200 209 207 260 287 304 312 312 272 315 351 358 82 171 196 178 170
322 320 320 319 318 317 317 319 321 321 320 320 321 321 317 315 319 316 319 317 314 304 286 292 290 287 265 275 247 193 212 226 215 249 262 279 296 236 3 40 8 3 348 2 130 212 103
324 322 322 319 314 312 313 314 318 320 320 321 322 322 319 314 318 316 328 321 334 348 275 297 271 291 261 124 18 216 218 226 258 283 292 205 168 71 47 66 249 323 332 328 177 218 213
335 332 329 329 326 316 311 312 314 318 320 321 322 323 320 318 316 319 341 9 354 339 293 263 269 266 279 293 305 221 213 221 233 276 164 14 88 194 221 176 191 261 265 298 292 193 170
337 333 330 329 331 328 321 314 313 316 319 321 323 322 322 322 315 318 2 37 40 325 295 281 257 256 259 273 299 262 215 190 167 199 112 19 217 218 247 208 255 263 328 301 275 196 155
334 333 331 329 327 326 323 318 312 312 315 319 321 323 323 327 315 312 314 36 345 336 258 293 251 246 245 236 223 260 192 188 142 175 146 162 235 120 167 274 275 284 223 274 253 333 22
333 332 329 328 326 323 321 319 317 313 312 314 317 321 324 332 330 343 164 325 340 339 36 277 250 247 178 184 262 233 215 187 76 189 162 223 259 204 231 255 143 275 181 245 268 70 356
331 329 327 325 323 322 318 316 315 314 313 312 311 315 318 322 310 316 272 310 334 317 346 45 207 153 165 168 323 343 204 196 168 189 104 244 236 187 192 229 152 243 192 251 245 64 83
331 329 327 324 319 317 317 316 316 315 314 311 307 309 307 310 302 259 322 288 334 42 263 350 127 173 123 228 305 51 145 179 219 148 3 226 249 160 211 269 199 271 253 40 33 109 52
331 330 327 324 321 317 315 316 316 317 316 312 305 302 297 294 283 259 343 45 45 145 321 352 17 197 107 178 236 143 181 148 174 122 267 319 266 243 196 310 352 132 69 332 355 12 232
332 331 329 325 323 319 317 316 317 318 319 313 312 307 288 278 260 243 152 58 155 268 269 324 312 269 166 153 251 181 144 211 227 122 109 176 327 171 167 180 207 195 160 161 211 207 257
332 333 330 325 323 322 323 320 319 317 321 314 322 314 300 257 202 179 161 83 209 218 332 327 335 63 355 201 127 122 208 230 207 168 178 155 267 267 164 158 146 241 168 187 105 20 70
332 334 333 327 322 320 323 323 324 324 327 323 330 337 18 160 162 158 80 232 250 244 341 331 28 58 11 293 160 157 203 220 228 182 158 218 295 227 254 169 242 160 168 73 359 131 216
331 333 333 329 325 322 323 324 328 330 333 331 335 357 74 136 138 136 152 231 269 271 336 332 301 284 241 288 202 207 229 282 205 183 142 142 123 253 87 172 225 38 341 30 122 129 163
330 333 332 331 328 325 325 326 330 333 344 337 351 38 151 145 78 91 164 203 301 284 291 253 211 211 224 260 246 248 231 209 324 161 174 203 152 232 223 257 242 191 225 161 139 220 171
329 331 331 329 329 328 325 326 332 337 351 1 1 45 165 192 120 288 293 282 258 269 269 251 269 235 215 243 321 193 268 259 337 161 175 171 254 310 332 352 18 211 181 147 132 91 189
326 327 327 328 330 326 326 326 327 333 348 357 9 52 138 208 250 113 359 294 291 286 262 232 249 271 279 195 240 252 290 305 343 358 23 145 127 167 218 206 163 275 190 171 126 116 189
324 324 324 325 327 323 322 322 319 327 343 1 22 28 30 297 5 328 198 295 301 333 248 10 345 343 252 269 166 225 250 316 300 353 54 91 162 330 225 209 179 194 241 173 153 178 162
318 320 320 322 323 322 318 317 309 314 329 52 53 10 351 292 312 335 38 7 323 323 268 325 2 319 314 184 227 236 184 204 252 341 61 359 140 72 269 237 256 282 267 170 207 199 245
311 316 316 315 315 321 319 311 293 287 273 116 217 307 316 311 343 57 201 310 318 327 294 336 326 314 9 2 315 282 133 128 181 328 22 78 107 71 288 350 301 2 246 234 228 181 153
302 308 309 309 309 318 317 305 289 268 247 223 162 25 4 284 312 335 330 311 310 322 259 290 340 359 324 326 317 276 61 102 72 36 125 137 105 97 219 22 305 239 287 250 236 97 279
294 299 300 301 304 305 312 304 293 256 238 208 176 164 96 273 303 290 334 297 316 323 291 283 322 329 336 345 33 10 346 10 8 20 338 62 130 111 158 181 280 286 328 192 171 263 336
286 290 292 293 296 296 296 294 289 251 234 196 180 185 215 311 244 310 307 295 287 314 331 292 332 331 356 69 77 156 220 239 320 341 32 10 91 134 125 156 220 252 347 331 314 293 332
277 281 284 285 289 285 285 279 279 257 214 200 181 196 209 254 266 266 233 276 316 336 282 296 329 322 6 74 72 166 225 185 232 203 334 319 3 213 164 191 279 354 303 313 156 222 182
268 272 274 277 282 272 279 268 271 242 196 206 187 213 224 251 270 261 249 261 274 274 258 314 348 324 2 84 142 190 197 225 241 257 195 186 138 236 263 145 269 355 346 181 327 152 131
258 262 264 268 274 261 266 250 264 214 183 207 224 221 238 262 260 267 269 257 251 247 276 296 277 260 210 80 112 121 188 217 183 277 94 264 188 231 191 242 248 37 284 297 266 219 151